Regional Weather Roundup
Issued by NWS

Home | Current Version | Previous Version | Text Only | Print | Product List | Glossary Off
Versions: 1 2 3 4 5 6 7 8 9 10 11 12 13 14 15 16 17 18 19 20 21 22 23 24 25 26 27 28 29 30 31 32 33 34 35 36 37 38 39 40 41 42 43 44 45 46 47 48 49 50

372
ASUS43 KMKX 270600
RWRWI

WISCONSIN REGIONAL WEATHER ROUNDUP
NATIONAL WEATHER SERVICE MILWAUKEE/SULLIVAN WI
100 AM CDT MON MAR 27 2017

NOTE: "FAIR" INDICATES FEW OR NO CLOUDS BELOW 12,000 FEET WITH NO
SIGNIFICANT WEATHER AND/OR OBSTRUCTIONS TO VISIBILITY.

WIZ001-002-006>008-014>016-023>028-270700-
NORTHWEST WISCONSIN

CITY           SKY/WX    TMP DP  RH WIND       PRES   REMARKS
SUPERIOR ARPT  CLOUDY    33  33  99 CALM      29.96S
ASHLAND        CLOUDY    32  32 100 NW3       29.95S
6HR MIN TEMP:  32; 6HR MAX TEMP:  34;

HAYWARD        CLOUDY    36  32  85 CALM      29.92S
6HR MIN TEMP:  35; 6HR MAX TEMP:  38;

SIREN          RAIN      35  34  96 CALM      29.94S
CUMBERLAND     DRIZZLE   34  32  93 N5        29.92F WCI  30
RICE LAKE      CLOUDY    36  35  96 CALM      29.93F
CHETEK         CLOUDY    36  35  99 CALM      29.92F
LADYSMITH      CLOUDY    35  33  94 NW3       29.93S
EAU CLAIRE     NOT AVBL
MENOMONIE      CLOUDY    39  38  97 N3        29.91F
NEW RICHMOND   CLOUDY    36  36 100 NW3       29.94S
OSCEOLA        CLOUDY    37  37 100 NW3       29.97S
$$

WIZ003>005-009-010-017-018-270700-
NORTH CENTRAL WISCONSIN

CITY           SKY/WX    TMP DP  RH WIND       PRES   REMARKS
MANITOWISH WTR CLOUDY    32  32 100 NW3       29.89S
ARBOR VITAE    CLOUDY    34  33  96 NW3       29.87F
WOODRUFF       CLOUDY    34  33  96 NW3       29.87F
RHINELANDER    CLOUDY    36  35  96 CALM      29.87S
6HR MIN TEMP:  36; 6HR MAX TEMP:  39; 6HR PCP:  0.10;

EAGLE RIVER    CLOUDY    33  33 100 NW3       29.87R
LAND O LAKES   CLOUDY    32  32 100 NW6       29.89R WCI  27
PHILLIPS       CLOUDY    32  32 100 CALM      29.89F
TOMAHAWK       CLOUDY    34  33  96 NW3       29.89F
MEDFORD        CLOUDY    36  35  96 NW3       29.88S
MERRILL        CLOUDY    37  37 100 CALM      29.88F
$$

WIZ029-030-035-036-043>047-270700-
CENTRAL WISCONSIN

CITY           SKY/WX    TMP DP  RH WIND       PRES   REMARKS
WAUSAU         CLOUDY    38  38 100 N3        29.86F
6HR MIN TEMP:  38; 6HR MAX TEMP:  39; 6HR PCP:  0.15;

MOSINEE        CLOUDY    36  36 100 NW3       29.89F
MARSHFIELD     FOG       38  37  97 NW5       29.87F VSB 1/2 WCI  34
6HR MIN TEMP:  38; 6HR MAX TEMP:  39; 6HR PCP: TRACE;

STEVENS POINT  CLOUDY    37  37 100 CALM      29.89F FOG
WAUPACA        CLOUDY    40  38  96 CALM      29.89F
WAUTOMA        CLOUDY    39  38  96 CALM      29.89F
6HR MIN TEMP:  39; 6HR MAX TEMP:  39; 6HR PCP:  0.05;

WISC RAPIDS    CLOUDY    39  39 100 W3        29.90F
6HR MIN TEMP:  39; 6HR MAX TEMP:  39; 6HR PCP:  0.08;

CAMP DOUGLAS   CLOUDY    39  39 100 W3        29.89F
$$

WIZ011>013-019>022-031-037>040-048>050-270700-
NORTHEAST WISCONSIN

CITY           SKY/WX    TMP DP  RH WIND       PRES   REMARKS
ANTIGO         CLOUDY    35  35 100 W5        29.88R WCI  31
SHAWANO        DRIZZLE   38  37  94 CALM      29.89S
OCONTO         CLOUDY    36  35  98 W5        29.88R WCI  32
STURGEON BAY   FOG       34  34 100 NW6       29.88R VSB 1/2 WCI  29
6HR MIN TEMP:  33; 6HR MAX TEMP:  35; 6HR PCP:  0.01;

GREEN BAY      CLOUDY    37  37 100 NW3       29.88F
6HR MIN TEMP:  37; 6HR MAX TEMP:  38; 6HR PCP:  0.02;

MANITOWOC      NOT AVBL
APPLETON       CLOUDY    36  36 100 NW3       29.87F
CLINTONVILLE   CLOUDY    36  36 100 CALM      29.89S
OSHKOSH        CLOUDY    38  37  97 NW6       29.87F WCI  33
6HR MIN TEMP:  38; 6HR MAX TEMP:  40; 6HR PCP:  0.05;

$$

WIZ032>034-041-042-053>061-270700-
SOUTHWEST WISCONSIN

CITY           SKY/WX    TMP DP  RH WIND       PRES   REMARKS
LA CROSSE      CLOUDY    42  40  92 CALM      29.91F
6HR MIN TEMP:  42; 6HR MAX TEMP:  43; 6HR PCP: TRACE;

SPARTA         CLOUDY    39  39 100 CALM      29.92S FOG
VIROQUA        CLOUDY    39  39 100 NW3       29.90S VSB 1/4
BOSCOBEL       CLOUDY    43  41  93 CALM      29.91F
6HR MIN TEMP:  43; 6HR MAX TEMP:  46;

PRAIRIE DU CHI CLOUDY    42  40  93 N3        29.91F
PLATTEVILLE    CLOUDY    43  43 100 NW5       29.90S VSB 1/4
$$

WIZ056-057-062-063-064-067-068-270700-
SOUTH CENTRAL WISCONSIN

CITY           SKY/WX    TMP DP  RH WIND       PRES   REMARKS
REEDSBURG      CLOUDY    39  39 100 CALM      29.89F FOG
BARABOO/DELLS  CLOUDY    39  38  97 W3        29.89F FOG
LONE ROCK      NOT AVBL
MINERAL POINT  FOG       43  43 100 CALM      29.89S VSB 1/4
MADISON        CLOUDY    41  39  93 NW6       29.88F
6HR MIN TEMP:  40; 6HR MAX TEMP:  42; 6HR PCP:  0.02;

MIDDLETON      CLOUDY    42  42 100 W6        29.90S
WATERTOWN      CLOUDY    40  40 100 NW3       29.89S FOG
MONROE         CLOUDY    43  41  93 NW5       29.88F
JANESVILLE     CLOUDY    43  43 100 NW3       29.89S
$$

WIZ051-052-058>065-066-070>072-270700-
SOUTHEAST WISCONSIN

CITY           SKY/WX    TMP DP  RH WIND       PRES   REMARKS
MILWAUKEE      FOG       43  40  89 CALM      29.87F VSB 3/4
6HR MIN TEMP:  41; 6HR MAX TEMP:  43; 6HR PCP: TRACE;

WAUKESHA       DRIZZLE   39  39 100 W9        29.89S WCI  33
MILWAUKEE/TIMM HVY RAIN  43  39  87 NW3       29.88S
RACINE         FOG       41  40  96 N3        29.89S VSB 1
6HR MIN TEMP:  41; 6HR MAX TEMP:  43; 6HR PCP: TRACE;

KENOSHA        FOG       46  45  96 CALM      29.87F VSB<1/4
6HR MIN TEMP:  46; 6HR MAX TEMP:  48; 6HR PCP:  0.03;

FOND DU LAC    LGT RAIN  39  36  89 NW5       29.88F
6HR MIN TEMP:  39; 6HR MAX TEMP:  41; 6HR PCP:  0.04;

SHEBOYGAN      CLOUDY    38  36  92 NW3       29.87F
6HR MIN TEMP:  38; 6HR MAX TEMP:  41; 6HR PCP:  0.12;

WEST BEND      CLOUDY    37  37 100 NW5       29.87F WCI  34
JUNEAU         DRIZZLE   38  38  98 CALM      29.90S
$$

LSZ147-162-270700-
LAKE SUPERIOR

STATION/POSITION TIME  TEMP    WIND        PRES    WAVE
                       AIR SEA DIR/SP/G            HT/PER
                 (UTC) (F)     (DEG/KT/KT) (MB)    (FT/S)
DEVILS ISLAND    0500   34     330/  5/  5 1014.9R
PORT WING        0540   34     360/  3/  3 1014.6S
SAXON HARBOR     0440   33     300/  4/  5 1013.5S
$$

LMZ867-665-643>646-270700-
LAKE MICHIGAN

STATION/POSITION TIME  TEMP    WIND        PRES    WAVE
                       AIR SEA DIR/SP/G            HT/PER
                 (UTC) (F)     (DEG/KT/KT) (MB)    (FT/S)
CHAMBERS ISLAND  0540   35     280/  3/  6 1011.2S
NORTHPORT PIER   0540   33     320/  7/  9 1011.2S
SISTER BAY       0406   35      20/  4/  6   N/A
KEWAUNEE LAKESHO 0530   36     320/  3/  5 1011.1S
SHEBOYGAN LAKESH 0500   40     280/  6/  8 1012.3R
PORT WASHINGTON  0530   42     300/  3/  5 1012.5F
MILWAUKEE LAKESH 0540   39      10/  1/  2   N/A
KENOSHA   LAKESH 0500   40        CALM     1011.9
$$

TC  - TEMPERATURE IN CELSIUS
VSB - VISIBILITY IN STATUTE MILES
WCI - WIND CHILL INDEX
HX  - HEAT INDEX





USA.gov is the U.S. government's official web portal to all federal, state and local government web resources and services.